Wetbulb
33.81 29.59 27.47 31.30 31.23 31.62 30.05 26.57 25.84 29.13 31.68 30.08 29.34 30.22 32.87 33.50 32.09 32.14 31.49 31.97 32.18 33.79 36.61 38.12 39.05 39.33 39.11 38.97 39.56 39.91 39.60 39.01 38.35 36.70 35.61 34.79 33.82 35.02 35.57 36.55 38.21 38.59 38.90 39.50
30.08 26.94 33.73 34.45 33.94 32.11 30.34 27.21 26.99 30.35 30.93 29.25 27.60 27.99 31.75 31.87 32.87 34.52 34.38 32.71 33.19 33.68 35.86 37.45 37.63 38.18 39.11 38.00 38.71 38.79 39.04 38.01 37.37 36.30 35.19 34.69 33.84 34.13 34.78 36.07 36.65 37.17 37.63 37.98
27.21 31.82 35.99 33.52 31.62 30.77 29.32 27.73 27.42 28.11 29.28 28.48 25.99 25.96 29.56 32.94 33.17 32.83 33.70 35.31 34.99 35.38 36.83 37.33 37.84 37.67 36.60 36.73 37.24 38.28 37.91 37.19 36.10 36.04 35.48 34.61 33.96 33.36 33.14 33.71 34.39 35.74 36.66 37.02
29.66 35.39 33.08 30.95 30.20 31.21 26.26 31.71 31.33 29.76 26.68 20.22 26.41 18.40 28.22 31.06 33.48 33.13 32.58 32.19 34.06 35.00 38.49 38.59 38.56 36.53 36.75 36.42 37.02 37.61 37.32 36.46 36.00 35.29 34.08 32.67 31.17 30.10 31.48 32.04 33.37 33.99 35.19 35.17
26.50 29.94 30.14 29.66 30.98 32.32 28.20 31.58 29.77 27.93 23.67 22.96 22.44 18.16 26.02 29.90 31.34 34.21 32.93 31.49 31.48 34.79 38.34 38.09 38.09 38.84 36.49 36.75 35.96 35.98 35.90 35.56 34.73 34.25 33.48 32.03 31.03 31.34 31.60 31.55 31.74 32.26 33.27 34.19
27.61 31.61 32.83 31.82 32.13 32.35 32.69 29.82 29.40 27.89 24.42 9.02 21.97 21.29 23.50 28.84 32.91 33.03 31.82 32.33 32.28 33.93 37.50 38.45 38.28 37.03 36.10 35.79 35.47 35.01 34.91 34.13 34.20 33.53 32.89 31.80 30.70 30.42 30.17 30.17 29.90 30.68 31.49 32.10
25.84 27.00 30.04 33.30 28.98 31.52 30.20 26.27 16.95 11.27 7.98 11.77 23.70 20.54 24.68 31.56 33.98 33.87 33.84 32.30 32.45 34.69 35.97 35.98 35.28 35.66 35.75 35.24 34.81 34.76 34.25 33.39 33.46 32.90 32.27 32.00 31.27 30.70 29.94 29.77 29.42 29.42 30.06 30.38
21.84 17.67 26.77 31.01 30.14 27.62 27.38 26.73 17.91 8.19 9.43 16.63 22.90 18.76 27.63 32.93 34.13 34.75 34.55 33.18 32.57 34.11 36.31 36.33 36.29 35.83 35.82 35.60 34.51 34.47 33.40 32.89 32.85 32.23 32.03 31.91 31.70 30.75 30.31 29.93 29.75 29.41 29.42 30.13
20.93 22.76 26.93 29.47 31.61 31.26 26.94 23.80 28.27 17.43 10.54 11.85 20.91 24.76 30.45 31.03 32.29 31.63 32.37 32.41 32.69 33.79 34.94 35.00 35.13 35.63 35.90 35.06 34.41 33.46 32.85 32.51 32.34 32.09 31.68 31.37 31.08 30.35 29.84 29.99 29.81 29.22 29.51 31.54
27.70 21.07 26.23 28.22 30.38 29.97 28.15 29.49 22.65 17.21 9.27 7.74 16.98 20.58 25.41 28.59 30.58 31.73 31.56 32.10 33.11 34.16 33.77 34.39 35.32 35.10 35.18 35.07 33.78 32.96 32.77 32.10 31.94 31.78 31.41 31.43 30.49 30.58 30.28 29.53 28.37 28.37 29.93 31.84
30.98 28.43 23.22 26.61 23.48 23.53 23.91 24.18 25.19 25.50 21.10 10.90 10.20 20.80 29.20 32.12 31.76 30.89 30.76 32.33 33.59 34.76 35.38 35.20 34.94 34.01 34.22 33.55 32.37 31.73 31.45 31.07 31.04 31.51 30.91 30.22 29.96 29.92 29.24 28.76 27.87 27.81 29.85 30.69
30.17 27.41 19.29 22.87 28.36 29.72 29.07 25.70 25.55 23.27 17.96 17.82 16.21 21.41 30.01 29.81 31.49 33.40 32.42 32.43 32.92 34.58 35.26 34.23 32.90 32.84 32.65 32.32 31.36 30.70 30.44 30.54 30.90 30.90 30.25 30.39 30.06 29.09 28.14 26.79 26.58 27.77 27.65 29.37
28.42 23.33 14.02 21.48 22.41 25.10 24.15 25.75 26.36 24.84 25.74 24.59 16.82 21.30 30.93 30.64 29.81 31.65 32.38 32.18 31.39 32.58 33.35 32.87 31.32 32.20 32.60 31.64 30.60 29.90 29.81 30.11 30.55 30.02 29.63 29.41 28.27 25.41 19.28 17.75 21.67 24.73 23.84 25.28
33.74 25.72 18.94 19.43 22.60 23.22 20.88 23.57 26.69 26.81 19.86 18.97 24.34 23.43 31.22 29.27 28.45 29.49 30.67 31.74 30.40 30.82 31.86 31.85 30.72 31.56 31.86 31.41 30.37 29.41 29.60 29.81 29.54 29.15 28.48 26.99 24.59 23.62 19.02 16.11 24.08 20.50 21.37 25.80
30.97 20.70 20.22 21.86 23.63 22.78 23.30 23.32 24.74 23.22 24.96 20.74 21.81 24.46 26.21 31.71 30.90 27.76 28.40 30.28 28.99 29.56 30.20 31.00 31.37 30.40 29.46 28.73 28.43 28.29 27.70 28.41 27.92 26.02 23.64 21.25 18.11 16.53 14.09 12.51 18.28 29.86 30.18 24.03
24.10 24.47 27.15 24.19 27.46 26.77 25.49 26.67 23.59 24.37 24.33 22.58 23.34 22.68 29.17 33.47 32.98 27.26 27.52 25.58 28.64 28.77 29.67 30.63 30.23 29.10 29.68 30.01 29.04 27.87 26.03 25.86 25.03 22.26 20.26 15.71 12.58 12.45 10.71 8.28 12.62 24.11 27.86 19.08
19.65 21.49 19.19 20.58 23.51 25.26 21.31 25.01 27.36 27.70 22.57 23.80 19.55 26.41 30.18 30.69 27.70 30.75 31.35 27.68 27.96 29.04 29.70 30.75 30.86 30.92 30.46 29.68 30.02 27.64 26.20 22.21 21.83 19.95 15.09 13.84 10.12 10.21 8.37 7.97 9.76 15.35 15.82 14.71
18.38 18.33 23.69 20.76 17.02 15.14 26.72 28.54 30.33 28.82 30.20 29.97 26.41 26.72 29.65 31.94 34.06 29.44 30.29 30.78 30.14 32.04 30.63 29.60 28.83 28.42 28.83 26.63 27.59 25.94 22.77 21.50 20.04 17.96 16.13 12.86 11.81 11.24 8.22 8.15 10.38 10.80 12.49 14.58
23.27 19.85 18.53 19.20 19.54 21.00 25.46 26.64 25.54 25.10 26.84 31.65 29.89 31.32 33.02 28.71 28.95 30.86 29.67 31.08 34.27 34.63 33.57 32.22 28.44 25.72 23.35 26.51 26.34 25.96 21.58 20.05 18.43 18.77 17.91 17.02 16.35 14.06 8.56 10.89 10.36 11.08 13.20 16.01
24.23 24.17 19.62 20.78 18.65 11.92 25.94 26.72 28.77 30.15 22.88 31.16 32.14 32.30 30.88 29.43 25.22 29.95 33.27 28.44 31.26 31.13 24.10 26.46 21.30 17.91 23.36 24.02 25.14 25.70 23.36 20.15 19.74 21.22 21.41 18.74 16.99 14.84 12.89 13.29 10.90 11.38 11.82 17.92
20.38 23.64 19.89 21.71 20.05 15.95 26.52 27.69 28.38 21.64 25.69 28.46 29.32 30.26 29.38 28.13 29.20 27.77 22.02 22.54 21.53 27.63 23.97 20.08 22.68 24.99 24.00 23.50 25.75 26.44 23.55 22.03 24.63 21.58 18.90 17.89 17.09 15.97 14.81 14.84 15.70 16.43 15.44 17.08
16.14 18.60 20.58 22.17 18.17 13.16 26.98 27.24 26.42 30.67 29.17 28.72 29.29 29.64 29.80 30.59 31.04 25.90 24.39 23.80 24.20 26.28 25.96 26.72 27.16 25.38 19.34 21.36 26.08 25.86 24.12 26.04 20.24 20.59 20.17 19.42 19.32 19.32 18.65 19.20 20.31 20.06 19.94 19.43
18.16 20.97 16.43 23.11 21.12 26.90 27.65 28.69 29.85 29.96 29.26 29.53 29.68 29.81 30.63 29.68 29.51 30.43 31.25 30.91 30.71 28.81 28.53 27.03 26.54 25.40 21.33 21.61 25.60 26.33 25.66 22.11 20.55 20.45 20.44 19.81 20.51 20.86 21.18 21.76 22.11 22.31 22.28 20.00
19.00 24.46 18.20 20.79 23.77 23.61 26.57 30.00 30.23 29.95 29.03 30.39 31.57 30.63 30.52 30.84 30.92 30.60 31.23 31.65 31.42 31.05 29.10 27.14 25.73 25.30 25.00 24.01 24.99 26.83 23.44 23.08 21.42 21.28 20.98 20.84 20.97 21.10 20.53 23.72 23.45 23.38 21.32 19.55
19.07 20.71 19.16 18.03 24.05 27.27 27.70 29.33 29.84 29.11 29.25 29.33 30.97 31.14 32.31 32.02 33.47 33.34 33.30 32.53 32.23 32.21 28.53 27.09 26.90 26.23 26.31 25.29 23.75 24.24 23.15 21.40 21.92 22.03 22.19 22.66 22.89 20.98 21.28 22.39 23.02 23.38 22.66 22.68
20.72 19.62 17.80 16.94 25.06 26.04 27.61 29.25 28.97 27.76 29.22 31.22 28.82 29.50 31.16 31.93 35.25 32.40 32.09 31.99 31.59 29.30 27.67 26.64 26.09 25.22 26.86 23.74 23.71 23.12 21.88 22.93 23.54 22.43 22.24 23.15 23.55 22.02 21.68 21.20 20.48 27.89 28.51 28.69
MSLP
1013.56 1013.86 1013.28 1012.72 1013.02 1012.96 1013.06 1013.22 1013.09 1012.55 1012.32 1012.52 1012.28 1011.72 1010.76 1010.69 1010.97 1011.14 1011.28 1011.46 1011.47 1011.62 1011.72 1012.06 1012.54 1012.91 1013.57 1014.34 1014.85 1015.18 1015.66 1016.10 1016.37 1016.87 1017.08 1017.32 1017.67 1017.68 1017.81 1017.69 1017.41 1017.29 1017.19 1017.03
1014.16 1013.48 1013.23 1013.16 1013.40 1013.45 1013.46 1013.43 1013.04 1012.63 1012.48 1012.80 1012.48 1011.43 1010.42 1010.14 1009.64 1009.38 1009.79 1010.39 1010.68 1011.21 1011.66 1012.21 1012.51 1012.95 1013.53 1014.21 1014.75 1015.21 1015.60 1016.10 1016.53 1016.82 1017.10 1017.38 1017.82 1017.98 1018.05 1017.72 1017.47 1017.39 1017.27 1017.05
1013.47 1012.61 1012.30 1013.01 1013.27 1013.54 1013.34 1013.33 1013.02 1013.05 1013.02 1013.14 1013.12 1011.33 1009.72 1008.35 1008.16 1008.14 1008.25 1008.48 1009.51 1009.91 1010.81 1011.75 1012.36 1012.83 1013.57 1014.21 1014.66 1015.13 1015.69 1016.12 1016.54 1016.78 1016.99 1017.49 1017.85 1018.06 1018.02 1017.80 1017.66 1017.47 1017.29 1017.06
1013.44 1012.45 1012.55 1012.92 1012.84 1013.09 1013.13 1012.46 1012.79 1013.21 1013.79 1014.19 1013.50 1012.08 1009.35 1008.00 1007.54 1007.27 1007.35 1007.96 1008.42 1009.04 1010.09 1010.87 1011.68 1012.65 1013.22 1013.80 1014.41 1015.05 1015.71 1016.14 1016.50 1016.68 1016.98 1017.69 1018.22 1018.52 1018.25 1018.05 1017.75 1017.54 1017.26 1016.96
1012.82 1012.49 1012.55 1012.63 1012.45 1012.55 1012.78 1012.61 1013.15 1013.63 1014.28 1014.59 1014.20 1013.80 1009.12 1008.10 1007.31 1006.34 1006.47 1007.21 1007.90 1008.38 1009.11 1010.31 1011.14 1011.88 1012.78 1013.46 1014.19 1015.05 1015.64 1016.04 1016.41 1016.61 1017.05 1017.73 1018.14 1018.27 1018.05 1017.92 1017.80 1017.53 1017.07 1016.64
1013.05 1012.79 1012.60 1012.48 1012.60 1012.66 1013.02 1013.57 1014.24 1014.89 1015.59 1015.63 1013.76 1013.12 1009.18 1007.59 1006.15 1005.66 1005.78 1006.64 1007.42 1008.25 1009.04 1010.04 1010.81 1011.79 1012.82 1013.53 1014.23 1015.00 1015.63 1016.19 1016.43 1016.63 1017.03 1017.50 1017.97 1018.03 1018.07 1018.02 1017.90 1017.45 1016.90 1016.46
1013.34 1013.02 1012.75 1012.67 1012.98 1013.16 1013.51 1014.21 1015.51 1016.65 1016.95 1015.13 1013.53 1012.69 1008.96 1005.81 1005.40 1005.46 1005.65 1006.23 1007.09 1008.04 1008.94 1009.82 1010.80 1011.82 1012.82 1013.51 1014.13 1014.77 1015.46 1016.15 1016.37 1016.66 1017.07 1017.37 1017.60 1017.77 1017.93 1017.93 1017.65 1017.18 1016.76 1016.37
1013.44 1013.62 1013.14 1012.85 1012.80 1012.87 1013.56 1014.08 1015.04 1015.98 1016.35 1015.34 1013.94 1011.21 1007.33 1005.06 1004.86 1004.91 1005.36 1006.08 1007.09 1008.03 1008.69 1009.43 1010.34 1011.33 1012.34 1013.12 1013.82 1014.45 1015.19 1015.84 1016.23 1016.52 1016.84 1017.08 1017.32 1017.54 1017.62 1017.52 1017.30 1017.12 1016.78 1016.36
1013.01 1013.01 1012.80 1012.86 1013.16 1013.45 1013.97 1014.17 1014.34 1015.51 1016.32 1015.72 1012.57 1009.64 1006.55 1005.10 1005.09 1005.27 1005.69 1006.41 1007.38 1007.98 1008.49 1009.23 1010.24 1010.93 1011.75 1012.55 1013.21 1013.93 1014.83 1015.42 1015.81 1016.21 1016.59 1016.91 1017.05 1017.16 1017.29 1017.27 1017.12 1016.86 1016.58 1016.12
1012.15 1012.83 1013.18 1013.33 1013.17 1013.60 1013.66 1013.80 1014.42 1015.71 1015.96 1015.05 1011.99 1009.75 1007.01 1005.54 1005.12 1005.56 1006.16 1006.56 1007.26 1007.89 1008.51 1009.23 1009.94 1010.65 1011.45 1012.05 1012.78 1013.66 1014.39 1014.92 1015.46 1015.92 1016.29 1016.52 1016.79 1016.99 1017.14 1017.03 1016.85 1016.69 1016.33 1015.89
1012.16 1012.75 1013.87 1013.68 1013.08 1012.57 1013.56 1013.59 1013.98 1014.50 1014.42 1013.56 1012.07 1008.11 1005.43 1004.70 1004.80 1005.43 1006.01 1006.42 1007.01 1007.61 1008.25 1008.92 1009.64 1010.41 1011.22 1012.03 1012.84 1013.45 1014.17 1014.74 1015.26 1015.65 1016.06 1016.44 1016.70 1016.81 1016.85 1016.70 1016.60 1016.33 1016.03 1015.75
1012.14 1012.47 1013.27 1013.02 1012.46 1012.44 1012.41 1012.64 1012.95 1013.61 1013.45 1012.86 1011.74 1007.37 1005.18 1004.91 1005.00 1005.25 1005.71 1006.24 1006.82 1007.37 1007.97 1008.56 1009.39 1010.35 1011.24 1012.01 1012.87 1013.37 1014.08 1014.59 1014.97 1015.39 1015.88 1016.20 1016.34 1016.61 1016.68 1016.65 1016.44 1016.14 1015.88 1015.51
1012.61 1012.68 1013.74 1013.39 1013.29 1012.80 1012.64 1012.05 1012.04 1012.24 1012.18 1011.51 1011.00 1007.12 1005.43 1005.01 1004.95 1005.19 1005.70 1006.32 1006.80 1007.40 1008.17 1008.73 1009.57 1010.35 1010.94 1011.71 1012.59 1013.22 1013.80 1014.40 1014.76 1015.17 1015.61 1015.95 1016.28 1016.65 1016.74 1016.70 1016.41 1016.00 1015.58 1015.26
1013.70 1013.16 1012.69 1011.76 1010.67 1010.89 1011.58 1011.00 1011.18 1011.83 1012.09 1010.66 1008.38 1007.89 1006.10 1005.61 1005.71 1005.80 1005.84 1006.18 1006.98 1007.53 1008.05 1008.63 1009.42 1009.98 1010.59 1011.31 1012.09 1012.80 1013.42 1014.05 1014.62 1014.98 1015.48 1015.96 1016.27 1016.46 1016.65 1016.49 1016.35 1015.90 1015.40 1015.15
1015.11 1013.57 1013.00 1011.89 1011.02 1010.08 1010.04 1010.12 1010.24 1010.66 1010.09 1010.44 1008.30 1007.61 1007.00 1006.03 1005.98 1006.26 1006.38 1006.89 1007.55 1007.68 1008.18 1008.59 1009.05 1009.62 1010.25 1011.06 1011.85 1012.53 1013.03 1013.64 1014.32 1014.86 1015.40 1015.89 1016.02 1016.30 1016.47 1016.32 1016.41 1015.87 1015.19 1015.04
1016.68 1013.79 1012.69 1011.67 1011.07 1010.50 1009.78 1009.35 1009.52 1009.40 1009.38 1008.76 1008.29 1006.51 1006.26 1005.42 1005.61 1006.19 1006.44 1007.13 1007.38 1007.51 1007.69 1008.15 1008.67 1009.26 1009.79 1010.39 1011.12 1012.13 1012.74 1013.31 1014.00 1014.60 1015.18 1015.80 1016.06 1016.37 1016.43 1016.40 1016.43 1015.88 1014.96 1014.90
1018.01 1016.07 1013.51 1011.43 1010.67 1010.11 1009.37 1007.66 1007.73 1007.78 1007.83 1007.10 1007.17 1004.68 1005.32 1005.15 1005.32 1005.83 1006.02 1006.80 1007.11 1007.08 1007.34 1007.78 1008.08 1008.40 1009.02 1009.59 1010.18 1011.25 1012.12 1012.94 1013.72 1014.22 1014.79 1015.29 1015.82 1016.39 1016.65 1016.23 1016.29 1015.94 1015.04 1014.76
1017.04 1016.52 1014.14 1011.55 1010.59 1008.80 1005.60 1005.36 1005.45 1005.55 1004.93 1005.35 1004.88 1004.20 1003.59 1003.80 1003.88 1004.77 1005.22 1006.12 1006.28 1006.38 1006.92 1007.14 1007.46 1007.89 1008.32 1008.99 1009.83 1010.69 1011.57 1012.50 1013.28 1013.86 1014.33 1014.78 1015.25 1015.86 1016.18 1016.29 1016.20 1015.91 1015.00 1014.76
1014.95 1015.28 1013.60 1010.80 1009.31 1006.94 1005.15 1004.65 1004.97 1004.80 1003.43 1003.01 1003.36 1002.43 1002.59 1003.67 1004.48 1004.06 1004.86 1005.03 1005.24 1005.21 1005.65 1005.98 1006.32 1007.04 1007.84 1008.52 1009.27 1010.28 1011.34 1012.05 1012.86 1013.31 1013.71 1014.05 1014.53 1015.18 1015.51 1015.61 1015.67 1015.67 1015.35 1014.86
1012.52 1012.55 1012.60 1010.02 1008.38 1006.60 1003.57 1003.45 1003.37 1003.46 1002.75 1001.43 1001.96 1001.79 1002.41 1003.79 1004.52 1003.94 1003.82 1004.18 1004.67 1005.07 1005.41 1005.90 1006.32 1007.02 1007.64 1008.13 1008.94 1009.89 1010.64 1011.59 1012.02 1012.27 1012.57 1013.11 1013.57 1014.29 1014.65 1014.65 1014.83 1014.80 1014.51 1014.43
1011.75 1010.49 1009.85 1008.95 1007.40 1005.55 1003.65 1003.19 1003.38 1003.28 1002.40 1001.34 1001.44 1001.60 1002.19 1002.92 1003.04 1003.54 1003.78 1004.04 1004.47 1004.75 1005.35 1005.68 1006.42 1006.80 1007.29 1007.94 1008.64 1009.33 1009.98 1010.30 1010.28 1011.21 1011.88 1012.54 1012.75 1013.23 1013.71 1013.88 1013.79 1014.01 1014.27 1014.07
1011.78 1010.54 1008.52 1008.33 1007.62 1005.65 1003.53 1003.64 1003.59 1002.78 1001.80 1001.61 1001.36 1001.33 1001.50 1001.90 1002.54 1003.28 1003.76 1004.23 1004.54 1005.00 1005.62 1005.86 1006.31 1007.16 1007.72 1007.90 1008.43 1008.99 1009.12 1008.84 1009.88 1010.69 1011.30 1011.73 1011.99 1012.32 1012.77 1013.09 1013.15 1013.19 1013.51 1013.68
1010.96 1010.85 1010.30 1008.22 1006.49 1004.88 1004.26 1004.19 1004.26 1003.81 1003.55 1002.51 1001.86 1001.56 1001.54 1001.80 1002.41 1002.99 1003.45 1003.85 1004.28 1004.62 1005.21 1005.75 1006.37 1006.99 1007.61 1007.96 1008.26 1008.46 1008.00 1008.81 1009.55 1010.27 1010.50 1010.83 1011.22 1011.62 1011.89 1012.33 1012.44 1012.60 1012.84 1013.13
1011.87 1011.39 1011.14 1009.52 1006.58 1006.14 1005.14 1004.74 1004.50 1004.60 1004.37 1003.37 1002.77 1002.29 1001.93 1002.01 1002.48 1003.01 1003.48 1003.96 1004.35 1004.59 1005.10 1005.45 1006.20 1006.88 1007.36 1007.76 1008.04 1007.99 1008.17 1008.47 1009.05 1009.52 1009.72 1010.02 1010.47 1010.88 1011.22 1011.48 1011.64 1011.85 1011.90 1012.12
1012.44 1011.71 1010.78 1009.78 1007.54 1006.09 1004.92 1005.70 1005.83 1005.03 1004.55 1004.01 1003.30 1003.07 1002.65 1002.40 1002.60 1003.12 1003.74 1004.10 1004.25 1004.46 1004.86 1005.25 1005.92 1006.56 1006.77 1007.14 1007.45 1007.57 1008.00 1008.29 1008.60 1008.74 1009.06 1009.40 1009.64 1010.01 1010.36 1010.55 1010.62 1010.77 1010.77 1010.84
1011.76 1011.03 1010.24 1008.54 1007.52 1007.46 1006.92 1006.48 1006.04 1005.69 1005.21 1004.54 1004.24 1003.66 1003.19 1002.63 1002.50 1003.25 1003.71 1004.09 1004.49 1005.12 1005.46 1005.90 1006.12 1006.44 1006.59 1006.92 1007.05 1007.10 1007.44 1007.79 1008.02 1008.25 1008.49 1008.62 1008.80 1009.16 1009.46 1009.74 1010.02 1009.95 1010.00 1010.14
Wind_Speed
2 3 11 13 5 3 3 3 2 3 1 4 9 10 15 9 6 10 10 10 10 12 8 8 8 9 9 7 8 8 8 5 3 2 2 3 2 3 2 4 5 5 5 5
3 12 8 5 6 6 8 4 9 5 1 4 5 15 15 9 11 14 18 14 13 7 8 8 9 9 10 9 8 8 7 6 4 3 2 2 1 2 3 2 4 5 5 6
7 4 3 10 5 7 7 8 4 6 0 3 3 11 7 7 11 7 11 12 13 18 16 13 13 12 9 9 9 8 7 7 5 5 3 3 2 2 3 3 3 3 5 5
6 5 5 5 7 7 5 7 7 6 4 5 2 8 6 4 8 7 9 11 14 15 14 15 15 11 12 9 8 8 7 7 5 5 4 3 2 2 3 3 3 4 6 6
8 4 4 5 5 8 6 2 5 3 3 3 2 2 9 2 8 14 10 11 10 15 19 18 16 15 8 10 9 8 7 6 5 6 5 3 3 3 2 3 5 6 5 6
4 1 4 2 2 1 5 5 6 5 3 2 9 9 9 6 10 5 3 9 11 11 15 15 11 9 8 7 8 7 8 6 6 5 4 4 4 4 3 3 4 4 4 4
1 4 2 3 4 4 2 5 2 5 3 8 2 3 11 8 7 5 8 9 9 11 14 14 14 12 11 11 9 8 8 7 6 5 4 4 3 3 4 5 4 6 5 4
4 7 7 3 4 6 6 6 7 9 5 5 1 9 10 5 6 9 5 7 8 11 14 16 15 13 13 12 9 9 8 7 7 6 4 3 3 3 3 4 4 4 4 5
7 6 2 4 1 1 6 5 4 5 1 4 4 8 11 7 5 2 7 8 9 11 13 14 12 13 13 12 11 10 9 7 7 6 4 4 3 3 3 5 4 3 4 6
5 2 1 0 3 2 3 2 3 3 2 5 6 6 7 5 8 5 7 10 9 8 9 10 13 13 10 9 8 8 8 8 7 6 4 3 2 2 3 3 4 5 5 6
4 4 0 2 7 9 3 2 1 1 5 6 2 8 8 10 8 11 9 9 12 12 13 13 11 8 9 7 7 8 8 8 6 6 4 4 3 1 2 3 4 4 5 6
7 4 5 9 2 3 4 7 8 7 7 4 3 10 1 3 5 9 13 11 8 9 11 9 9 9 9 9 8 8 7 7 7 6 5 4 2 0 2 4 5 5 5 6
3 4 1 5 4 1 6 8 6 2 3 15 3 7 2 4 2 7 11 8 8 8 8 8 8 10 11 9 8 8 7 7 6 6 6 4 3 1 2 4 5 5 5 6
8 3 8 11 7 7 7 8 15 14 5 6 24 8 17 6 8 5 7 9 9 9 9 8 7 10 10 9 10 9 8 7 7 6 6 5 4 3 3 3 5 4 3 5
3 7 5 5 5 5 5 5 15 20 22 14 7 19 10 16 8 7 5 4 6 8 8 9 11 10 8 8 7 7 7 8 7 6 5 6 4 2 2 2 5 5 2 4
14 6 6 5 7 8 6 8 9 18 16 17 16 24 8 11 5 2 8 5 8 10 10 10 8 8 11 12 11 9 9 9 6 7 7 5 3 2 1 2 4 6 2 4
9 8 1 17 5 4 7 22 19 14 11 12 20 26 9 13 8 11 11 11 12 11 11 11 13 13 10 12 12 13 11 7 7 7 6 6 4 4 4 3 3 6 3 2
15 18 9 7 3 12 12 4 14 20 23 21 13 15 13 22 22 7 8 10 11 11 10 10 9 8 8 7 8 7 8 9 8 7 6 5 6 5 4 3 4 5 3 3
23 17 8 6 10 7 5 8 10 11 11 22 23 28 23 6 3 13 9 11 16 13 10 10 6 5 6 9 9 10 9 8 7 9 8 7 7 6 5 5 4 4 3 3
19 20 13 3 10 12 10 4 5 5 7 4 16 21 12 8 8 11 8 7 13 9 5 7 6 4 7 7 10 11 10 10 11 11 11 8 8 7 7 6 5 4 3 4
5 12 21 14 5 8 7 4 4 6 6 2 3 7 8 10 7 3 2 3 2 3 5 4 5 6 5 8 11 11 10 14 13 7 6 7 7 8 7 5 5 3 3 1
6 7 8 9 6 7 7 5 6 2 3 2 4 2 6 4 6 2 1 1 2 5 4 3 4 4 3 6 9 10 13 9 6 7 7 8 8 7 5 6 3 3 3 3
4 5 6 5 5 5 5 8 9 7 5 8 5 1 3 7 5 5 4 4 3 2 3 3 3 3 2 5 7 10 7 7 7 7 8 8 7 7 6 6 6 4 4 3
9 3 7 12 1 21 13 4 14 13 11 13 7 2 2 7 6 6 3 2 2 1 2 3 3 3 5 7 9 10 4 7 8 9 8 6 8 7 6 6 5 5 5 5
7 7 8 14 13 10 2 16 16 19 16 11 8 5 5 3 6 5 4 4 2 1 2 2 3 3 5 5 8 7 6 6 7 7 7 8 7 8 7 8 7 7 5 5
5 7 8 8 14 14 14 14 17 15 12 13 9 7 6 3 4 3 4 2 0 1 0 1 2 2 5 4 6 5 7 9 9 8 7 8 8 7 7 7 5 12 12 13
Wind_Direction
215 132 214 205 191 207 147 197 239 256 227 182 235 262 257 262 252 240 240 222 212 210 204 172 160 142 128 135 142 143 134 140 114 74 64 39 13 343 337 333 340 346 333 328
97 239 231 185 205 223 261 258 269 269 243 183 295 268 261 232 239 222 220 216 210 181 169 167 153 146 153 152 151 145 138 135 117 118 120 107 82 299 273 311 321 322 330 320
172 217 183 183 200 201 234 230 222 224 318 250 320 283 243 253 234 232 220 208 194 188 176 170 166 164 152 156 161 150 149 142 139 133 105 63 22 348 332 320 301 307 310 305
233 252 194 174 209 179 250 211 200 198 146 227 137 277 287 261 268 229 220 199 193 184 181 171 169 166 170 171 152 142 145 143 137 121 96 115 183 245 243 271 285 302 299 296
240 197 177 188 203 164 233 145 178 174 165 56 202 52 270 305 278 256 215 206 192 183 171 174 176 175 168 151 151 147 144 135 136 126 128 154 219 242 275 307 310 303 300 298
247 303 178 212 88 252 148 74 46 44 69 340 212 167 274 212 218 264 246 190 183 171 172 173 170 149 149 144 142 148 147 151 149 137 149 184 224 273 303 300 293 281 281 287
270 224 187 157 92 28 99 101 339 345 357 223 87 184 249 253 247 230 241 199 177 167 164 163 160 161 160 163 161 156 156 164 163 154 173 199 236 260 273 285 285 311 309 301
167 305 173 197 211 184 185 165 166 207 207 245 342 235 243 252 262 249 240 170 149 165 172 172 172 167 168 170 166 161 164 164 169 163 185 205 237 236 264 281 302 289 291 305
180 254 174 145 352 100 190 189 177 98 100 45 229 279 294 249 261 207 163 149 170 171 171 171 169 172 173 173 173 166 164 170 168 174 177 206 227 268 286 297 290 297 297 310
224 276 184 173 135 142 197 282 104 8 222 257 274 276 237 262 231 202 180 180 177 171 162 169 178 178 180 173 160 156 165 170 171 172 181 198 224 262 285 308 328 314 289 310
152 175 261 91 221 171 140 250 41 197 168 188 238 254 219 234 195 200 206 197 181 183 184 182 184 179 172 154 156 160 164 162 168 174 182 191 208 265 310 340 324 298 296 304
213 185 184 208 238 214 171 203 180 185 236 229 172 259 301 292 265 205 202 196 194 190 190 180 172 164 167 168 165 169 169 170 177 175 177 186 155 351 350 333 307 302 297 297
221 229 55 321 352 252 208 215 217 66 96 239 180 263 321 267 329 236 191 201 197 184 176 171 161 179 180 177 172 175 174 180 175 170 175 174 168 198 288 293 298 301 299 297
19 284 202 205 183 140 201 193 207 212 228 216 238 268 293 314 311 281 210 188 194 191 187 181 179 190 186 183 179 177 175 175 176 172 177 179 185 219 259 287 289 297 304 304
244 242 195 253 293 149 191 196 195 204 222 209 268 235 236 262 247 241 239 184 181 193 190 194 196 196 187 177 179 178 174 173 172 173 172 198 181 228 281 332 300 285 330 304
326 282 202 251 248 236 247 231 217 227 229 251 258 265 249 264 216 253 227 209 207 204 207 208 209 198 193 190 187 185 184 183 163 177 191 192 164 209 256 289 288 285 283 307
283 281 275 250 192 130 260 234 230 227 207 208 229 243 211 256 214 218 228 201 214 220 209 207 210 207 200 195 179 189 186 159 178 182 187 190 166 212 225 238 277 268 253 305
248 260 265 254 150 224 230 190 225 223 237 224 251 246 218 226 243 227 187 192 228 230 214 224 214 206 199 167 173 158 156 174 179 192 192 189 170 212 216 236 240 267 260 230
210 226 264 227 220 292 262 198 175 179 254 217 223 243 245 221 293 262 200 207 221 231 230 213 197 186 161 173 168 166 166 168 175 201 202 193 177 204 197 220 238 255 265 278
200 207 213 202 213 212 233 194 184 149 289 222 214 243 249 143 232 253 222 186 222 213 186 195 181 161 166 172 159 166 178 178 201 203 205 187 178 195 206 201 208 230 206 241
235 216 215 223 270 284 245 164 172 131 236 319 206 237 172 195 207 232 335 321 285 182 174 135 163 171 178 151 161 181 176 203 205 187 174 187 184 191 209 198 188 207 239 222
206 276 199 207 215 266 162 87 184 276 321 289 301 269 208 164 161 160 23 313 92 125 146 144 137 189 158 149 167 187 203 200 164 175 187 194 195 194 193 207 208 193 195 214
222 0 311 310 223 353 340 22 17 360 325 325 337 359 119 117 120 138 100 67 64 109 124 145 162 161 174 184 194 202 220 163 167 180 196 197 191 199 192 200 205 190 193 200
350 25 314 324 264 318 322 31 14 2 334 319 323 285 164 114 104 95 88 88 82 110 189 148 147 214 220 198 213 230 170 169 174 198 202 192 193 203 200 212 199 203 191 188
270 301 289 283 270 318 140 357 344 329 326 307 294 301 309 145 145 162 186 181 166 3 27 131 179 236 252 196 221 212 200 173 198 204 202 203 202 200 206 212 205 206 219 197
200 241 265 279 298 300 293 317 321 317 319 325 276 270 271 268 130 177 257 286 174 170 158 288 250 239 268 212 248 227 202 195 204 209 208 208 203 201 205 205 222 234 227 222